XE3JAR Weather Reports


time (UTC)temp
F
wind
direction
speed
knots
gust
knots
rain 1hr
in
rain 24hr
in
rain mn
in
humidity
%
barometer
mb
20260905151312 93 203 0.0 0.0 0.00 0.50 0.00 78 1014.6
20260905150328 93 248 0.0 0.0 0.00 0.50 0.00 77 1014.2
20260905145529 91 270 0.0 0.0 0.00 0.50 0.00 80 1014.2
20260905144016 90 135 0.0 0.0 0.00 0.50 0.00 83 1014.2
20260905143530 88 225 0.0 0.0 0.00 0.50 0.00 87 1014.2
20260905142012 84 270 0.0 0.0 0.00 0.50 0.00 93 1014.2
20260905141332 82 68 0.0 0.0 0.00 0.50 0.00 94 1014.2
20260905140712 82 315 0.0 0.0 0.00 0.50 0.00 95 1014.2
20260905135522 81 248 0.0 0.0 0.00 0.50 0.00 98 1014.2
20260905135050 81 225 0.0 0.0 0.00 0.50 0.00 99 1014.2
20260905134059 79 293 0.0 0.0 0.00 0.50 0.00 99 1014.2
20260905133553 79 203 0.0 0.0 0.00 0.50 0.00 99 1013.9
20260905133045 79 180 0.0 0.0 0.00 0.50 0.00 99 1013.9
20260905132628 79 248 0.0 0.0 0.00 0.50 0.00 99 1013.9
20260905131142 77 248 0.0 0.0 0.00 0.50 0.00 99 1014.2
20260905125915 77 225 0.0 0.0 0.00 0.50 0.00 99 1014.6
20260905125418 77 225 0.0 0.0 0.00 0.50 0.00 99 1014.6
20260905124933 77 225 0.0 0.0 0.00 0.50 0.00 99 1014.6
20260905123358 75 203 0.0 0.0 0.00 0.50 0.00 99 1014.6
20260905122855 75 225 0.0 0.0 0.00 0.50 0.00 99 1014.6
20260905121608 75 225 0.0 0.0 0.00 0.50 0.00 99 1014.2
20260905120949 75 225 0.0 0.0 0.00 0.50 0.00 99 1013.9
20260905120029 75 270 0.0 9.6 0.00 0.50 0.00 99 1013.9
20260905113650 75 248 0.0 0.0 0.00 0.50 0.00 99 1013.9
20260905113345 75 225 0.0 0.0 0.00 0.50 0.00 99 1013.9
20260905111634 75 225 0.0 0.0 0.00 0.50 0.00 99 1013.6
20260905111109 75 180 0.0 0.0 0.00 0.50 0.00 99 1013.6
20260905105604 75 180 0.0 6.1 0.00 0.50 0.00 99 1013.6
20260905104112 75 203 6.1 9.6 0.00 0.50 0.00 99 1013.6
20260905103609 77 270 3.5 6.1 0.00 0.50 0.00 99 1013.6
20260905103104 77 180 6.1 6.1 0.00 0.50 0.00 99 1013.6
20260905102041 77 293 0.0 0.0 0.00 0.50 0.00 99 1013.6
20260905100730 77 270 0.0 0.0 0.00 0.50 0.00 99 1013.2
20260905095651 77 203 0.0 0.0 0.00 0.50 0.00 99 1013.2
20260905073356 79 68 19.1 37.4 0.00 0.50 0.00 99 1012.9
20260905072333 79 68 19.1 37.4 0.00 0.50 0.00 99 1012.9
20260905070914 79 68 19.1 37.4 0.00 0.50 0.00 99 1012.9
20260905064345 79 113 21.7 37.4 0.00 0.46 0.00 99 1011.8
20260905055848 81 225 0.0 0.0 0.00 0.00 0.00 93 1012.5
20260905055340 81 248 0.0 0.0 0.00 0.00 0.00 93 1012.9
20260905054834 82 248 0.0 0.0 0.00 0.00 0.00 93 1012.9
20260905054330 82 225 0.0 0.0 0.00 0.00 0.00 93 1012.9
20260905053832 82 225 0.0 0.0 0.00 0.00 0.00 93 1012.9
20260905043913 82 225 0.0 0.0 0.00 0.00 0.00 93 1012.2
20260905043406 82 248 0.0 0.0 0.00 0.00 0.00 93 1012.2
20260905041924 82 203 0.0 0.0 0.00 0.00 0.00 93 1012.2
20260905035526 82 293 0.0 0.0 0.00 0.00 0.00 93 1011.8
20260905031814 84 203 0.0 9.6 0.00 0.00 0.00 96 1011.8
20260905024837 86 225 0.0 0.0 0.00 0.00 0.00 94 1011.5
20260905023903 86 270 0.0 0.0 0.00 0.00 0.00 93 1010.8
20260905023357 86 248 0.0 0.0 0.00 0.00 0.00 93 1010.8
20260905022857 86 248 0.0 0.0 0.00 0.00 0.00 93 1010.8
20260905021353 88 203 0.0 0.0 0.00 0.00 0.00 92 1010.8
20260905020845 88 248 0.0 0.0 0.00 0.00 0.00 92 1010.8
20260905020338 88 203 0.0 0.0 0.00 0.00 0.00 91 1010.5
20260905015835 88 248 0.0 0.0 0.00 0.00 0.00 91 1010.5
20260905014830 88 203 0.0 0.0 0.00 0.00 0.00 90 1010.5
20260905014208 88 248 6.1 9.6 0.00 0.00 0.00 90 1010.5
20260905005035 88 0 11.3 15.6 0.00 0.00 0.00 87 1009.1
20260905004512 90 23 9.6 11.3 0.00 0.00 0.00 86 1009.1
20260905004027 90 315 9.6 9.6 0.00 0.00 0.00 86 1009.1
20260905002947 90 68 9.6 11.3 0.00 0.00 0.00 85 1009.1
20260904235833 90 45 19.1 19.1 0.00 0.00 0.00 83 1009.1
20260904233427 91 23 9.6 19.1 0.00 0.00 0.00 81 1008.8
20260904230639 91 0 11.3 21.7 0.00 0.00 0.00 78 1008.1
20260904221025 97 23 11.3 25.2 0.00 0.00 0.00 74 1008.1
20260904220527 97 338 9.6 21.7 0.00 0.00 0.00 73 1008.1
20260904215510 97 315 31.3 31.3 0.00 0.00 0.00 73 1008.1
20260904212802 99 293 9.6 11.3 0.00 0.00 0.00 65 1008.1
20260904211727 100 68 11.3 11.3 0.00 0.00 0.00 63 1008.1
20260904205029 106 0 11.3 15.6 0.00 0.00 0.00 58 1008.5
20260904204038 106 225 6.1 19.1 0.00 0.00 0.00 58 1008.5
20260904195228 102 23 15.6 25.2 0.00 0.00 0.00 60 1009.5
20260904194456 108 68 11.3 19.1 0.00 0.00 0.00 55 1009.5
20260904193445 109 23 9.6 11.3 0.00 0.00 0.00 53 1009.8
20260904191937 109 158 9.6 9.6 0.00 0.00 0.00 55 1009.8
20260904190942 108 315 11.3 19.1 0.00 0.00 0.00 55 1010.2
20260904185408 108 23 15.6 19.1 0.00 0.00 0.00 57 1010.2
20260904181850 108 90 6.1 6.1 0.00 0.00 0.00 58 1010.8
20260904180843 108 0 9.6 15.6 0.00 0.00 0.00 59 1010.8
20260904180335 106 45 6.1 15.6 0.00 0.00 0.00 60 1011.2
20260904175321 106 68 6.1 11.3 0.00 0.00 0.00 60 1011.2
20260904174814 106 135 9.6 21.7 0.00 0.00 0.00 60 1011.2
20260904173111 104 315 19.1 21.7 0.00 0.00 0.00 62 1011.5
20260904172708 106 45 6.1 19.1 0.00 0.00 0.00 60 1011.5
20260904163918 102 45 9.6 19.1 0.00 0.00 0.00 65 1011.8
20260904161312 102 180 6.1 6.1 0.00 0.00 0.00 65 1012.2
20260904155758 102 113 6.1 9.6 0.00 0.00 0.00 66 1011.8
20260904155253 100 135 15.6 15.6 0.00 0.00 0.00 67 1011.8
20260904154309 99 0 9.6 15.6 0.00 0.00 0.00 68 1011.8
20260904153804 99 180 6.1 6.1 0.00 0.00 0.00 68 1011.8
20260904152739 99 68 0.0 0.0 0.00 0.00 0.00 70 1011.8